SCP
0 0 0 0 0 0 0 0 0 0 0 0 0 0 0 0 0 0 0 0 0 0 0 0 0 0 0 0 0 0 0 0 0 0 0 0 0 0 0 0 0 0 0
0 0 0 0 0 0 0 0 0 0 0 0 0 0 0 0 0 0 0 0 0 0 0 0 0 0 0 0 0 0 0 0 0 0 0 0 0 0 0 0 0 0 0
0 0 0 0 0 0 0 0 0 0 0 0 0 0 0 0 0 0 0 0 0 0 0 0 0 0 0 0 0 0 0 0 0 0 0 0 0 0 0 0 0 0 0
0 0 0 0 0 0 0 0 0 0 0 0 0 0 0 0 0 0 0 0 0 0 0 0 0 0 0 0 0 0 0 0 0 0 0 0 0 0 0 0 0 0 0
0 0 0 0 0 0 0 0 0 0 0 0 0 0 0 0 0 0 0 0 0 0 0 0 0 0 0 0 0 0 0 0 0 0 0 0 0 0 0 0 0 0 0
0 0 0 0 0 0 0 0 0 0 0 0 0 0 0 0 0 0 0 0 0 0 0 0 0 0 0 0 0 0 0 0 0 0 0 0 0 0 0 0 0 0 0
0 0 0 0 0 0 0 0 0 0 0 0 0 0 0 0 0 0 0 0 0 0 0 0 0 0 0 0 0 0 0 0 0 0 0 0 0 0 0 0 0 0 0
0 0 0 0 0 0 0 0 0 0 0 0 0 0 0 0 0 0 0 0 0 0 0 0 0 0 0 0 0 0 0 0 0 0 0 0 0 0 0 0 0 0 0
0 0 0 0 0 0 0 0 0 0 0 0 0 0 0 0 0 0 0 0 0 0 0 0 0 0 0 0 0 0 0 0 0 0 0 0 0 0 0 0 0 0 0
0 0 0 0 0 0 0 0 0 0 0 0 0 0 0 0 0 0 0 0 0 0 0 0 0 0 0 0 0 0 0 0 0 0 0 0 0 0 0 0 0 0 0
0 0 0 0 0 0 0 0 0 0 0 0 0 0 0 0 0 0 0 0 0 0 0 0 0 0 0 0 0 0 0 0 0 0 0 0 0 0 0 0 0 0 0
0 0 0 0 0 0 0 0 0 0 0 0 0 0 0 0 0 0 0 0 0 0 0 0 0 0 0 0 0 0 0 0 0 0 0 0 0 0 0 0 0 0 0
0 0 0 0 0 0 0 0 0 0 0 0 0 0 0 0 0 0 0 0 0 0 0 0 0 0 0 0 0 0 0 0 0 0 0 0 0 0 0 0 0 0 0
0 0 0 0 0 0 0 0 0 0 0 0 0 0 0 0 0 0 0 0 0 0 0 0 0 0 0 0 0 0 0 0 0 0 0 0 0 0 0 0 0 0 0
0 0 0 0 0 0 0 0 0 0 0 0 0 0 0 0 0 0 0 0 0 0 0 0 0 0 0 0 0 0 0 0 0 0 0 0 0 0 0 0 0 0 0
0 0 0 0 0 0 0 0 0 0 0 0 0 0 0 0 0 0 0 0 0 0 0 0 0 0 0 0 0 0 0 0 0 0 0 0 0 0 0 0 0 0 0
0 0 0 0 0 0 0 0 0 0 0 0 0 0 0 0 0 0 0 0 0 0 0 0 0 0 0 0 0 0 0 0 0 0 0 0 0 0 0 0 0 0 0
0 0 0 0 0 0 0 0 0 0 0 0 0 0 0 0 0 0 0 0 0 0 0 0 0 0 0 0 0 0 0 0 0 0 0 0 0 0 0 0 0 0 0
0 0 0 0 0 0 0 0 0 0 0 0 0 0 0 0 0 0 0 0 0 0 0 0 0 0 0 0 0 0 0 0 0 0 0 0 0 0 0 0 0 0 0
0 0 0 0 0 0 0 0 0 0 0 0 0 0 0 0 0 0 0 0 0 0 0 0 0 0 0 0 0 0 0 0 0 0 0 0 0 0 0 0 0 0 0
0 0 0 0 0 0 0 0 0 0 0 0 0 0 0 0 0 0 0 0 0 0 0 0 0 0 0 0 0 0 0 0 0 0 0 0 0 0 0 0 0 0 0
0 0 0 0 0 0 0 0 0 0 0 0 0 0 0 0 0 0 0 0 0 0 0 0 0 0 0 0 0 0 0 0 0 0 0 0 0 0 0 0 0 0 0
0 0 0 0 0 0 0 0 0 0 0 0 0 0 0 0 0 0 0 0 0 0 0 0 0 0 0 0 0 0 0 0 0 0 0 0 0 0 0 0 0 0 0
0 0 0 0 0 0 0 0 0 0 0 0 0 0 0 0 0 0 0 0 0 0 0 0 0 0 0 0 0 0 0 0 0 0 0 0 0 0 0 0 0 0 0
0 0 0 0 0 0 0 0 0 0 0 0 0 0 0 0 0 0 0 0 0 0 0 0 0 0 0 0 0 0 0 0 0 0 0 0 0 0 0 0 0 0 0
0 0 0 0 0 0 0 0 0 0 0 0 0 0 0 0 0 0 0 0 0 0 0 0 0 0 0 0 0 0 0 0 0 0 0 0 0 0 0 0 0 0 0
Wind_Speed
2 2 1 3 4 5 5 5 6 6 7 8 8 8 8 8 8 8 7 8 8 8 8 8 8 9 9 9 8 8 8 8 8 7 7 7 6 6 6 5 5 3 5
2 2 2 3 4 5 5 5 6 7 7 7 8 7 7 7 7 7 7 8 8 8 8 8 8 8 8 8 8 8 9 9 9 8 8 6 6 6 6 5 5 4 5
2 2 2 3 4 4 5 5 6 6 7 7 7 7 7 7 7 7 7 7 8 8 8 8 8 8 8 8 8 9 9 9 9 9 8 4 3 6 6 6 6 5 5
3 2 2 3 3 4 4 5 5 6 6 6 7 7 7 6 6 6 7 7 7 7 8 8 8 8 8 8 9 9 9 9 9 8 5 4 3 6 7 6 6 6 6
2 1 1 3 3 3 4 4 5 5 5 6 6 6 6 6 6 6 7 7 7 7 8 8 8 8 8 8 9 9 9 10 10 7 4 4 3 5 7 7 7 7 6
2 1 1 3 3 3 3 3 4 4 4 5 5 6 6 6 6 6 6 6 7 7 7 7 8 8 8 8 9 9 10 10 8 5 4 3 3 6 8 8 8 7 7
2 1 1 3 3 3 3 3 3 3 4 4 4 5 5 5 6 6 6 6 7 7 7 7 8 8 9 9 10 10 10 10 6 4 4 3 4 8 8 8 8 8 8
1 1 0 2 3 3 2 2 2 2 3 3 3 4 4 4 5 5 5 6 7 7 7 8 8 8 9 10 10 10 10 9 6 5 4 3 6 8 9 8 9 8 8
2 2 1 0 0 1 1 1 2 2 2 3 3 3 4 4 4 5 5 6 7 7 7 8 9 9 10 10 10 10 11 10 6 4 4 3 6 8 8 8 8 8 8
2 2 1 1 1 1 1 0 1 1 2 3 4 4 4 5 4 5 5 6 6 7 8 9 10 10 10 10 10 11 11 8 5 4 3 3 8 8 8 8 8 8 8
1 1 1 1 1 1 1 1 1 2 2 3 4 5 5 3 3 3 4 6 7 8 8 9 10 11 11 10 11 11 9 4 4 3 3 6 7 8 8 9 9 9 9
1 1 1 1 1 1 1 1 2 2 2 2 2 3 3 3 2 4 5 7 8 9 9 11 11 10 8 5 8 9 4 5 4 3 4 8 8 8 9 9 9 10 10
1 0 0 0 0 1 1 1 1 1 1 2 2 2 2 2 2 3 3 4 5 7 5 7 7 5 5 4 4 4 5 4 3 3 4 9 9 9 9 10 10 10 11
1 1 1 0 0 1 1 1 1 1 1 1 1 2 2 2 2 2 2 3 3 3 4 4 4 5 6 6 6 6 6 4 4 3 5 10 10 10 10 10 11 11 11
1 1 0 1 1 1 1 0 1 1 1 1 1 1 2 2 2 2 2 2 3 3 3 3 4 5 5 5 5 6 5 5 5 5 4 10 11 11 11 11 11 11 11
1 1 0 1 1 1 1 1 0 1 1 1 1 1 2 2 2 2 3 3 3 3 3 3 4 4 4 4 5 5 5 5 5 5 5 7 11 12 11 11 11 11 12
2 1 1 2 1 1 1 1 1 1 1 1 1 1 2 2 3 3 3 3 2 3 4 4 4 4 4 4 5 5 4 5 5 6 6 5 5 9 11 12 12 12 12
1 1 1 1 2 1 1 1 1 1 1 1 1 1 2 3 4 3 3 3 3 3 3 3 4 4 4 4 4 4 4 4 5 5 5 5 5 5 8 12 13 13 13
2 2 1 2 2 1 1 2 2 1 1 1 1 1 2 3 4 4 3 3 3 3 3 3 3 3 4 4 4 4 4 4 4 5 5 6 5 5 5 8 12 12 12
2 2 2 2 2 2 2 2 2 2 2 1 1 1 2 2 4 4 3 3 3 3 3 3 4 3 3 3 5 5 4 4 4 4 4 4 5 5 5 6 6 7 11
2 2 2 2 2 2 1 1 1 1 1 1 1 2 2 2 3 4 3 3 3 3 3 4 4 4 3 2 3 3 4 4 5 4 3 4 5 5 5 5 4 4 4
2 2 2 2 1 1 1 1 1 1 1 1 1 2 2 2 2 3 4 3 3 4 4 4 4 3 2 1 2 3 2 3 4 4 3 3 4 4 4 5 4 5 4
2 2 2 2 1 1 2 2 2 2 2 2 2 1 2 2 2 2 3 4 4 4 4 4 4 4 3 1 1 3 3 2 1 3 3 3 3 3 3 3 5 5 5
2 2 2 2 2 1 2 3 3 2 1 0 0 0 1 1 2 2 3 3 4 3 4 4 3 2 3 2 1 2 2 3 3 1 2 3 3 4 3 3 4 4 4
2 2 2 2 2 2 2 3 3 2 1 1 1 2 1 1 1 1 2 2 3 3 4 3 3 2 2 3 2 2 2 2 2 3 1 1 2 2 2 3 3 3 3
1 1 1 2 1 1 2 2 2 2 2 2 1 1 1 1 1 1 1 2 2 2 3 4 3 3 3 3 2 2 3 3 3 3 3 1 0 1 2 2 2 2 2
Wind_Direction
262 232 197 111 97 87 84 85 83 84 86 87 88 89 89 89 90 92 93 92 88 85 84 83 81 81 81 79 79 83 88 86 86 85 85 87 87 87 86 90 90 86 95
192 183 172 123 106 94 85 84 84 86 86 85 88 87 88 89 91 89 90 92 92 89 84 82 81 81 80 79 77 79 84 83 80 76 71 66 75 85 86 88 89 92 95
152 161 163 134 117 107 94 88 85 85 83 83 83 84 86 87 87 89 87 88 88 87 87 84 80 79 80 80 77 77 78 79 78 74 61 38 50 81 82 85 88 91 91
141 144 156 145 127 116 104 95 88 86 84 79 80 82 84 86 85 85 87 87 86 85 85 83 81 80 81 81 79 79 77 75 75 72 53 33 34 79 80 82 85 85 85
121 117 160 150 136 121 108 100 94 91 87 81 78 80 84 87 87 84 84 82 84 84 83 82 81 81 82 82 80 82 81 75 72 64 50 36 30 75 80 81 82 84 82
119 118 186 161 148 134 117 107 103 99 92 83 79 79 81 85 86 85 83 82 83 85 84 83 81 80 84 87 85 86 82 76 67 57 48 37 32 71 77 77 78 77 78
140 160 203 171 161 149 132 113 100 105 100 88 80 78 78 83 83 83 84 82 84 85 85 83 83 82 82 85 85 84 83 78 69 60 51 40 48 67 71 74 77 75 75
136 155 150 174 163 156 140 127 106 98 91 84 78 78 81 83 81 79 83 86 88 87 85 84 82 82 85 84 83 81 76 72 67 58 48 37 60 67 67 69 70 70 72
72 69 35 30 111 143 144 134 116 88 73 70 74 79 82 84 85 82 86 88 89 89 87 84 83 81 84 83 80 77 71 67 57 47 49 39 62 65 68 68 68 65 66
61 54 44 35 32 27 7 64 106 78 66 63 63 69 74 73 68 71 74 81 90 92 90 86 83 80 79 80 79 76 69 60 47 40 30 48 65 66 67 69 71 68 64
47 17 26 35 23 23 10 8 31 31 47 55 55 57 61 54 47 49 62 81 91 92 87 84 81 76 73 71 73 71 63 47 43 32 23 53 66 70 70 69 69 69 67
303 313 350 355 2 17 31 36 23 28 33 46 55 51 54 56 51 57 52 78 84 82 78 77 75 70 65 56 58 59 51 44 39 26 32 51 62 72 74 72 70 70 68
227 281 269 274 322 47 44 39 38 35 39 46 56 60 63 59 55 53 51 57 62 69 64 64 62 58 60 61 59 52 49 45 34 21 26 46 57 67 73 73 71 71 67
146 230 276 163 67 54 73 53 65 66 54 54 64 72 77 71 64 64 66 63 61 64 70 66 68 65 63 63 65 60 51 47 35 21 25 45 56 64 73 75 74 73 70
188 224 280 85 74 58 81 63 80 78 80 83 74 81 101 104 97 88 84 80 76 76 78 76 73 69 66 63 63 63 55 48 40 33 24 45 53 58 65 74 75 73 72
219 224 209 115 103 94 100 110 119 111 110 91 84 103 114 117 115 106 100 91 83 82 81 79 78 77 71 68 62 56 52 47 43 40 34 37 47 55 59 65 70 72 74
215 198 195 165 114 109 110 118 108 108 122 111 94 117 124 122 122 117 112 105 98 93 92 86 77 75 77 72 62 55 52 49 49 45 40 35 35 46 54 60 63 67 72
155 149 192 149 111 87 78 68 73 87 94 88 101 121 127 127 128 123 119 116 111 98 93 93 85 81 75 73 67 54 50 47 47 48 46 42 38 39 45 53 58 61 65
145 137 114 92 104 100 77 58 52 60 78 76 75 93 125 131 135 131 128 124 118 106 97 102 90 97 95 87 78 61 49 44 38 47 48 45 45 43 40 45 50 54 60
109 111 111 90 82 83 64 57 48 44 39 53 67 74 111 129 133 126 126 130 125 115 106 104 103 89 94 98 88 70 51 44 42 42 42 43 45 46 44 42 39 42 50
86 97 106 96 90 97 75 74 67 44 23 36 50 70 100 121 131 131 133 136 135 132 133 128 115 103 90 99 86 62 40 42 45 38 35 43 44 44 47 44 39 35 35
122 132 123 122 122 122 120 123 117 109 68 58 36 49 63 99 120 140 145 150 143 130 131 137 128 117 109 94 108 97 48 19 23 30 32 43 40 40 46 47 43 39 34
168 183 166 155 130 105 86 82 68 54 43 38 30 33 38 82 105 117 142 148 151 150 157 160 151 139 143 103 89 132 136 169 18 13 26 35 37 41 37 41 44 37 37
204 188 161 147 128 101 100 104 109 104 107 259 309 360 35 77 102 114 135 148 155 157 161 173 166 149 142 149 97 69 114 141 136 87 10 15 34 41 34 42 39 36 33
183 167 154 132 119 112 117 122 118 103 110 62 36 46 32 32 76 114 139 148 156 162 170 172 168 163 156 156 154 138 101 80 99 130 133 358 20 25 36 40 37 33 27
111 120 130 132 141 137 127 126 134 131 122 101 67 59 16 5 16 72 145 166 170 170 177 182 179 174 174 161 158 156 154 151 158 143 145 148 68 356 21 37 37 25 26